User: anonymous   Login
Location: Unspecified
(0.0000°N, 0.0000°E)
Time: 22:27:07
(UTC+00:00)
Language:

STARLINK-3571 - Orbit

View from above orbital plane
View from above orbital plane
View from above satellite
View from above satellite

Ground track
Ground track

The orbit is defined by the following mean orbital elements,

1 51857U          26145.40876589 +.00000000 +00000-0 -29786-4 0 00001
2 51857  53.2146  34.7241 0001292  87.1704 272.9436 15.08831593    07
Epoch (UTC): 25 May 2026 09:48:37
Eccentricity: 0.0001292
inclination: 53.2146°
perigee height: 539 km
apogee height: 541 km
right ascension of ascending node: 34.7241°
argument of perigee: 87.1704°
revolutions per day: 15.08831593
mean anomaly at epoch: 272.9436°

The dashed part of the orbit path shows where the satellite is in the earth's shadow,  

DLR